AKDT,Max TemperatureF,Mean TemperatureF,Min TemperatureF,Max Dew PointF,MeanDew PointF,Min DewpointF,Max Humidity, Mean Humidity, Min Humidity, Max Sea Level PressureIn, Mean Sea Level PressureIn, Min Sea Level PressureIn, Max VisibilityMiles, Mean VisibilityMiles, Min VisibilityMiles, Max Wind SpeedMPH, Mean Wind SpeedMPH, Max Gust SpeedMPH,PrecipitationIn, CloudCover, Events, WindDirDegrees
2011-10-1,50,44,36,40,38,35,97,75,61,30.00,29.96,29.91,10,10,10,25,13,34,0.00,4,,184
2011-10-2,48,40,32,38,34,31,96,85,61,30.01,29.96,29.88,10,10,10,12,3,,0.00,0,,39
2011-10-3,55,43,32,35,30,26,96,69,34,29.86,29.62,29.40,10,10,9,8,2,,0.00,0,,37
2011-10-4,52,46,39,43,35,28,97,67,43,29.62,29.47,29.37,10,10,10,18,4,24,0.08,6,Rain,27
2011-10-5,51,44,39,43,41,38,100,89,74,29.73,29.69,29.63,10,10,10,10,2,16,0.00,6,,279
2011-10-6,50,48,45,43,41,39,93,77,68,29.76,29.71,29.67,10,10,8,24,14,31,0.02,8,Rain,202
2011-10-7,50,49,48,42,41,40,80,75,71,29.96,29.88,29.78,10,10,10,29,21,39,0.00,7,Rain,207
2011-10-8,53,48,43,42,39,35,93,74,50,29.94,29.71,29.44,10,10,10,16,4,22,0.00,7,,38
2011-10-9,48,45,42,43,41,36,100,86,66,29.68,29.60,29.45,10,10,8,23,4,31,0.13,8,Rain,199
2011-10-10,52,46,39,41,37,33,100,79,49,29.68,29.54,29.37,10,8,1,17,3,22,0.02,6,Rain,19
2011-10-11,52,48,45,39,34,32,80,57,49,29.54,29.42,29.36,10,10,10,20,13,28,0.00,7,Rain,25
2011-10-12,46,44,41,43,41,38,100,93,76,29.98,29.77,29.55,10,9,4,7,2,,0.53,8,Rain,98
2011-10-13,46,42,39,40,39,38,100,87,76,30.08,30.04,29.99,10,10,10,17,3,26,0.10,7,Rain,205
2011-10-14,46,45,44,38,37,35,79,74,66,30.07,30.00,29.93,10,10,10,28,18,33,0.00,8,,204
2011-10-15,45,42,39,40,38,38,97,85,76,29.92,29.89,29.88,10,10,8,25,18,39,0.18,8,Rain,196
2011-10-16,46,42,39,41,40,38,100,92,74,29.94,29.90,29.88,10,9,5,7,2,,0.04,8,Rain,48
2011-10-17,48,40,33,40,37,32,100,88,71,29.98,29.90,29.72,10,10,6,7,1,,0.21,6,Rain,21
2011-10-18,50,44,39,41,38,37,100,83,61,29.74,29.63,29.55,10,9,2,36,7,46,0.49,7,Rain,211
2011-10-19,46,44,41,38,36,35,79,74,68,29.89,29.81,29.75,10,10,10,18,14,24,0.00,7,,200
2011-10-20,45,44,41,38,36,35,86,76,68,29.93,29.91,29.86,10,10,10,23,12,29,0.00,7,Rain,198
2011-10-21,46,40,33,36,30,22,96,72,37,29.84,29.61,29.50,10,10,6,17,4,23,0.08,4,Rain,29
2011-10-22,46,40,35,41,38,34,100,90,73,29.60,29.56,29.53,10,10,5,25,2,37,0.23,8,Rain,202
2011-10-23,46,46,45,40,38,37,82,76,71,29.83,29.71,29.60,10,10,10,26,22,37,0.00,6,,202
2011-10-24,46,45,44,40,39,38,85,79,71,30.10,29.99,29.84,10,10,10,29,20,37,0.00,6,Rain,205
2011-10-25,46,44,42,40,38,37,89,77,68,30.08,29.77,29.34,10,8,4,34,26,46,0.76,8,Rain,207
2011-10-26,45,44,43,37,36,35,80,75,68,29.73,29.46,29.33,10,10,10,36,29,44,0.00,7,,210
2011-10-27,45,42,37,39,37,35,100,85,68,29.81,29.71,29.49,10,10,8,30,18,38,0.04,7,Rain,204
2011-10-28,46,42,37,39,34,29,97,69,51,29.48,29.32,29.16,10,10,10,23,7,29,0.00,8,Rain,20
2011-10-29,46,42,39,39,38,36,93,81,71,29.48,29.34,29.26,10,9,6,30,16,34,0.34,8,Rain,197
2011-10-30,44,42,39,39,38,35,93,86,74,29.60,29.42,29.30,10,9,5,32,12,43,0.17,8,Rain,203
2011-10-31,45,42,39,38,34,31,87,74,65,30.05,29.88,29.65,10,9,2,36,25,48,0.11,8,Rain,210